contact:dominique.lefevre@mio.osupytheas.fr, maurice.libes@osupytheas.fr, didier.mallarino@osupytheas.fr
Project:EMSO http://www.emso-fr.org/EMSO-France
Depth: 2436.0 m
Title:EMSO Ligure Ouest : Data MII capteur MICROCAT
DateTime_Computer,Latitude,Longitude,Temperature,Conductivity,Pressure,DateTime_Instrument
DateTime_Computer,Latitude,Longitude,degC,S m-1,dbar,DateTime_Instrument
2022-05-18T00:02:58Z,42.805,6.029,13.3019,4.60067,2470.624,2022-5-18T02:04:39Z
2022-05-18T00:06:01Z,42.805,6.029,13.3012,4.60061,2470.614,2022-5-18T02:07:43Z
2022-05-18T00:09:05Z,42.805,6.029,13.3011,4.60066,2470.624,2022-5-18T02:10:46Z
2022-05-18T00:12:08Z,42.805,6.029,13.3007,4.60062,2470.614,2022-5-18T02:13:49Z
2022-05-18T00:15:11Z,42.805,6.029,13.3004,4.60049,2470.53,2022-5-18T02:16:52Z
2022-05-18T00:18:14Z,42.805,6.029,13.3007,4.60044,2470.6,2022-5-18T02:19:55Z
2022-05-18T00:21:17Z,42.805,6.029,13.3010,4.60059,2470.614,2022-5-18T02:22:58Z
2022-05-18T00:24:20Z,42.805,6.029,13.3005,4.60054,2470.6,2022-5-18T02:26:01Z
2022-05-18T00:27:23Z,42.805,6.029,13.3009,4.60053,2470.646,2022-5-18T02:29:04Z
2022-05-18T00:30:26Z,42.805,6.029,13.3007,4.60052,2470.591,2022-5-18T02:32:07Z
2022-05-18T00:33:29Z,42.805,6.029,13.3006,4.60063,2470.553,2022-5-18T02:35:11Z
2022-05-18T00:36:33Z,42.805,6.029,13.3006,4.60047,2470.553,2022-5-18T02:38:14Z
2022-05-18T00:39:36Z,42.805,6.029,13.3011,4.60055,2470.577,2022-5-18T02:41:17Z
2022-05-18T00:42:39Z,42.805,6.029,13.3003,4.60056,2470.6,2022-5-18T02:44:20Z
2022-05-18T00:45:42Z,42.805,6.029,13.3014,4.60063,2470.553,2022-5-18T02:47:23Z
2022-05-18T00:48:45Z,42.805,6.029,13.3008,4.60052,2470.53,2022-5-18T02:50:26Z
2022-05-18T00:51:48Z,42.805,6.029,13.3007,4.60046,2470.553,2022-5-18T02:53:29Z
2022-05-18T00:54:51Z,42.805,6.029,13.3010,4.60055,2470.567,2022-5-18T02:56:32Z
2022-05-18T00:57:54Z,42.805,6.029,13.3009,4.60062,2470.553,2022-5-18T02:59:36Z
2022-05-18T01:00:58Z,42.805,6.029,13.3013,4.60055,2470.567,2022-5-18T03:02:39Z
2022-05-18T01:04:01Z,42.805,6.029,13.3009,4.60053,2470.591,2022-5-18T03:05:42Z
2022-05-18T01:07:04Z,42.805,6.029,13.3019,4.60060,2470.553,2022-5-18T03:08:45Z
2022-05-18T01:10:07Z,42.805,6.029,13.3005,4.60061,2470.53,2022-5-18T03:11:48Z
2022-05-18T01:13:10Z,42.805,6.029,13.3004,4.60065,2470.553,2022-5-18T03:14:51Z
2022-05-18T01:16:13Z,42.805,6.029,13.3009,4.60059,2470.516,2022-5-18T03:17:54Z
2022-05-18T01:19:16Z,42.805,6.029,13.3005,4.60062,2470.53,2022-5-18T03:20:57Z
2022-05-18T01:22:19Z,42.805,6.029,13.3004,4.60053,2470.516,2022-5-18T03:24:01Z
2022-05-18T01:25:23Z,42.805,6.029,13.3007,4.60072,2470.553,2022-5-18T03:27:04Z
2022-05-18T01:28:26Z,42.805,6.029,13.3007,4.60053,2470.52,2022-5-18T03:30:07Z
2022-05-18T01:31:29Z,42.805,6.029,13.3012,4.60056,2470.591,2022-5-18T03:33:10Z
2022-05-18T01:34:32Z,42.805,6.029,13.3009,4.60067,2470.507,2022-5-18T03:36:13Z
2022-05-18T01:37:35Z,42.805,6.029,13.3011,4.60056,2470.53,2022-5-18T03:39:16Z
2022-05-18T01:40:38Z,42.805,6.029,13.3007,4.60052,2470.577,2022-5-18T03:42:19Z
2022-05-18T01:43:41Z,42.805,6.029,13.3007,4.60062,2470.544,2022-5-18T03:45:22Z
2022-05-18T01:46:44Z,42.805,6.029,13.3005,4.60050,2470.52,2022-5-18T03:48:26Z
2022-05-18T01:49:48Z,42.805,6.029,13.3007,4.60067,2470.53,2022-5-18T03:51:29Z
2022-05-18T01:52:51Z,42.805,6.029,13.3006,4.60052,2470.52,2022-5-18T03:54:32Z
2022-05-18T01:55:54Z,42.805,6.029,13.3006,4.60057,2470.507,2022-5-18T03:57:35Z
2022-05-18T01:58:57Z,42.805,6.029,13.3006,4.60050,2470.591,2022-5-18T04:00:38Z
2022-05-18T02:02:00Z,42.805,6.029,13.3014,4.60060,2470.544,2022-5-18T04:03:41Z
2022-05-18T02:05:03Z,42.805,6.029,13.3009,4.60064,2470.544,2022-5-18T04:06:44Z
2022-05-18T02:08:06Z,42.805,6.029,13.3006,4.60057,2470.507,2022-5-18T04:09:47Z
2022-05-18T02:11:09Z,42.805,6.029,13.3009,4.60072,2470.53,2022-5-18T04:12:51Z
2022-05-18T02:14:13Z,42.805,6.029,13.3013,4.60068,2470.53,2022-5-18T04:15:54Z
2022-05-18T02:17:16Z,42.805,6.029,13.3009,4.60049,2470.507,2022-5-18T04:18:57Z
2022-05-18T02:20:19Z,42.805,6.029,13.3009,4.60051,2470.52,2022-5-18T04:22:00Z
2022-05-18T02:23:22Z,42.805,6.029,13.3009,4.60057,2470.507,2022-5-18T04:25:03Z
2022-05-18T02:26:25Z,42.805,6.029,13.3012,4.60057,2470.483,2022-5-18T04:28:06Z
2022-05-18T02:29:28Z,42.805,6.029,13.3006,4.60060,2470.497,2022-5-18T04:31:09Z
2022-05-18T02:32:31Z,42.805,6.029,13.3007,4.60057,2470.507,2022-5-18T04:34:12Z
2022-05-18T02:35:34Z,42.805,6.029,13.3014,4.60062,2470.52,2022-5-18T04:37:15Z
2022-05-18T02:38:37Z,42.805,6.029,13.3008,4.60061,2470.483,2022-5-18T04:40:19Z
2022-05-18T02:41:41Z,42.805,6.029,13.3011,4.60069,2470.507,2022-5-18T04:43:22Z
2022-05-18T02:44:44Z,42.805,6.029,13.3006,4.60064,2470.483,2022-5-18T04:46:25Z
2022-05-18T02:47:47Z,42.805,6.029,13.3015,4.60055,2470.53,2022-5-18T04:49:28Z
2022-05-18T02:50:50Z,42.805,6.029,13.3007,4.60064,2470.483,2022-5-18T04:52:31Z
2022-05-18T02:53:53Z,42.805,6.029,13.3012,4.60058,2470.483,2022-5-18T04:55:34Z
2022-05-18T02:56:56Z,42.805,6.029,13.3012,4.60050,2470.507,2022-5-18T04:58:37Z
2022-05-18T02:59:59Z,42.805,6.029,13.3012,4.60067,2470.483,2022-5-18T05:01:40Z
2022-05-18T03:03:02Z,42.805,6.029,13.3010,4.60055,2470.544,2022-5-18T05:04:44Z
2022-05-18T03:06:06Z,42.805,6.029,13.3009,4.60077,2470.497,2022-5-18T05:07:47Z
2022-05-18T03:09:09Z,42.805,6.029,13.3009,4.60046,2470.497,2022-5-18T05:10:50Z
2022-05-18T03:12:12Z,42.805,6.029,13.3010,4.60060,2470.483,2022-5-18T05:13:53Z
2022-05-18T03:15:15Z,42.805,6.029,13.3011,4.60057,2470.483,2022-5-18T05:16:56Z
2022-05-18T03:18:18Z,42.805,6.029,13.3008,4.60052,2470.497,2022-5-18T05:19:59Z
2022-05-18T03:21:21Z,42.805,6.029,13.3003,4.60043,2470.52,2022-5-18T05:23:02Z
2022-05-18T03:24:24Z,42.805,6.029,13.3016,4.60067,2470.483,2022-5-18T05:26:05Z
2022-05-18T03:27:27Z,42.805,6.029,13.3005,4.60049,2470.483,2022-5-18T05:29:09Z
2022-05-18T03:30:31Z,42.805,6.029,13.3009,4.60050,2470.483,2022-5-18T05:32:12Z
2022-05-18T03:33:34Z,42.805,6.029,13.3019,4.60079,2470.483,2022-5-18T05:35:15Z
2022-05-18T03:36:37Z,42.805,6.029,13.3019,4.60059,2470.483,2022-5-18T05:38:18Z
2022-05-18T03:39:40Z,42.805,6.029,13.3005,4.60051,2470.507,2022-5-18T05:41:21Z
2022-05-18T03:42:43Z,42.805,6.029,13.3019,4.60053,2470.483,2022-5-18T05:44:24Z
2022-05-18T03:45:46Z,42.805,6.029,13.3008,4.60061,2470.507,2022-5-18T05:47:27Z
2022-05-18T03:48:49Z,42.805,6.029,13.3011,4.60062,2470.483,2022-5-18T05:50:30Z
2022-05-18T03:51:52Z,42.805,6.029,13.3015,4.60068,2470.46,2022-5-18T05:53:34Z
2022-05-18T03:54:56Z,42.805,6.029,13.3012,4.60080,2470.507,2022-5-18T05:56:37Z
2022-05-18T03:57:59Z,42.805,6.029,13.3014,4.60064,2470.507,2022-5-18T05:59:40Z
2022-05-18T04:01:02Z,42.805,6.029,13.3003,4.60058,2470.52,2022-5-18T06:02:43Z
2022-05-18T04:04:05Z,42.805,6.029,13.3015,4.60056,2470.507,2022-5-18T06:05:46Z
2022-05-18T04:07:08Z,42.805,6.029,13.3013,4.60057,2470.483,2022-5-18T06:08:49Z
2022-05-18T04:10:11Z,42.805,6.029,13.3014,4.60061,2470.483,2022-5-18T06:11:52Z
2022-05-18T04:13:14Z,42.805,6.029,13.3007,4.60064,2470.483,2022-5-18T06:14:55Z
2022-05-18T04:16:17Z,42.805,6.029,13.3010,4.60053,2470.52,2022-5-18T06:17:58Z
2022-05-18T04:19:20Z,42.805,6.029,13.3010,4.60073,2470.483,2022-5-18T06:21:02Z
2022-05-18T04:22:24Z,42.805,6.029,13.3015,4.60076,2470.52,2022-5-18T06:24:05Z
2022-05-18T04:25:27Z,42.805,6.029,13.3016,4.60063,2470.507,2022-5-18T06:27:08Z
2022-05-18T04:28:30Z,42.805,6.029,13.3019,4.60072,2470.52,2022-5-18T06:30:11Z
2022-05-18T04:31:33Z,42.805,6.029,13.3006,4.60062,2470.544,2022-5-18T06:33:14Z
2022-05-18T04:34:36Z,42.805,6.029,13.3004,4.60055,2470.52,2022-5-18T06:36:17Z
2022-05-18T04:37:39Z,42.805,6.029,13.3013,4.60066,2470.507,2022-5-18T06:39:20Z
2022-05-18T04:40:42Z,42.805,6.029,13.3009,4.60060,2470.507,2022-5-18T06:42:23Z
2022-05-18T04:43:45Z,42.805,6.029,13.3011,4.60053,2470.53,2022-5-18T06:45:27Z
2022-05-18T04:46:49Z,42.805,6.029,13.3014,4.60066,2470.52,2022-5-18T06:48:30Z
2022-05-18T04:49:52Z,42.805,6.029,13.3006,4.60054,2470.567,2022-5-18T06:51:33Z
2022-05-18T04:52:55Z,42.805,6.029,13.3027,4.60068,2470.507,2022-5-18T06:54:36Z
2022-05-18T04:55:58Z,42.805,6.029,13.3013,4.60067,2470.567,2022-5-18T06:57:39Z
2022-05-18T04:59:01Z,42.805,6.029,13.3006,4.60058,2470.497,2022-5-18T07:00:42Z
2022-05-18T05:02:04Z,42.805,6.029,13.3012,4.60064,2470.544,2022-5-18T07:03:45Z
2022-05-18T05:05:07Z,42.805,6.029,13.3022,4.60077,2470.544,2022-5-18T07:06:48Z
2022-05-18T05:08:10Z,42.805,6.029,13.3010,4.60081,2470.544,2022-5-18T07:09:52Z
2022-05-18T05:11:14Z,42.805,6.029,13.3012,4.60048,2470.544,2022-5-18T07:12:55Z
2022-05-18T05:14:17Z,42.805,6.029,13.3003,4.60047,2470.53,2022-5-18T07:15:58Z
2022-05-18T05:17:20Z,42.805,6.029,13.3014,4.60052,2470.507,2022-5-18T07:19:01Z
2022-05-18T05:20:23Z,42.805,6.029,13.3020,4.60062,2470.577,2022-5-18T07:22:04Z
2022-05-18T05:23:26Z,42.805,6.029,13.3011,4.60069,2470.53,2022-5-18T07:25:07Z
2022-05-18T05:26:29Z,42.805,6.029,13.3008,4.60078,2470.544,2022-5-18T07:28:10Z
2022-05-18T05:29:32Z,42.805,6.029,13.3019,4.60077,2470.553,2022-5-18T07:31:13Z
2022-05-18T05:32:35Z,42.805,6.029,13.3010,4.60055,2470.567,2022-5-18T07:34:17Z
2022-05-18T05:35:39Z,42.805,6.029,13.3019,4.60074,2470.6,2022-5-18T07:37:20Z
2022-05-18T05:38:42Z,42.805,6.029,13.3016,4.60083,2470.567,2022-5-18T07:40:23Z
2022-05-18T05:41:45Z,42.805,6.029,13.3016,4.60078,2470.553,2022-5-18T07:43:26Z
2022-05-18T05:44:48Z,42.805,6.029,13.3013,4.60078,2470.591,2022-5-18T07:46:29Z
2022-05-18T05:47:51Z,42.805,6.029,13.3014,4.60060,2470.553,2022-5-18T07:49:32Z
2022-05-18T05:50:54Z,42.805,6.029,13.3010,4.60063,2470.544,2022-5-18T07:52:35Z
2022-05-18T05:53:57Z,42.805,6.029,13.3009,4.60075,2470.553,2022-5-18T07:55:38Z
2022-05-18T05:57:00Z,42.805,6.029,13.3014,4.60068,2470.553,2022-5-18T07:58:42Z
2022-05-18T06:00:04Z,42.805,6.029,13.3024,4.60080,2470.614,2022-5-18T08:01:45Z
2022-05-18T06:03:07Z,42.805,6.029,13.3009,4.60068,2470.553,2022-5-18T08:04:48Z
2022-05-18T06:06:10Z,42.805,6.029,13.3005,4.60055,2470.614,2022-5-18T08:07:51Z
2022-05-18T06:09:13Z,42.805,6.029,13.3015,4.60074,2470.577,2022-5-18T08:10:54Z
2022-05-18T06:12:16Z,42.805,6.029,13.3008,4.60062,2470.614,2022-5-18T08:13:57Z
2022-05-18T06:15:19Z,42.805,6.029,13.3017,4.60067,2470.614,2022-5-18T08:17:00Z
2022-05-18T06:18:22Z,42.805,6.029,13.3012,4.60062,2470.591,2022-5-18T08:20:03Z
2022-05-18T06:21:25Z,42.805,6.029,13.3010,4.60070,2470.591,2022-5-18T08:23:07Z
2022-05-18T06:24:28Z,42.805,6.029,13.3026,4.60063,2470.577,2022-5-18T08:26:10Z
2022-05-18T06:27:32Z,42.805,6.029,13.3019,4.60073,2470.567,2022-5-18T08:29:13Z
2022-05-18T06:30:35Z,42.805,6.029,13.3017,4.60065,2470.614,2022-5-18T08:32:16Z
2022-05-18T06:33:38Z,42.805,6.029,13.3019,4.60077,2470.591,2022-5-18T08:35:19Z
2022-05-18T06:36:41Z,42.805,6.029,13.3015,4.60064,2470.6,2022-5-18T08:38:22Z
2022-05-18T06:39:44Z,42.805,6.029,13.3014,4.60080,2470.6,2022-5-18T08:41:25Z
2022-05-18T06:42:47Z,42.805,6.029,13.3014,4.60068,2470.577,2022-5-18T08:44:28Z
2022-05-18T06:45:50Z,42.805,6.029,13.3016,4.60082,2470.637,2022-5-18T08:47:31Z
2022-05-18T06:48:53Z,42.805,6.029,13.3017,4.60075,2470.624,2022-5-18T08:50:35Z
2022-05-18T06:51:57Z,42.805,6.029,13.3007,4.60055,2470.614,2022-5-18T08:53:38Z
2022-05-18T06:55:00Z,42.805,6.029,13.3012,4.60068,2470.624,2022-5-18T08:56:41Z
2022-05-18T06:58:03Z,42.805,6.029,13.3013,4.60078,2470.624,2022-5-18T08:59:44Z
2022-05-18T07:01:06Z,42.805,6.029,13.3013,4.60075,2470.577,2022-5-18T09:02:47Z
2022-05-18T07:04:09Z,42.805,6.029,13.3014,4.60081,2470.624,2022-5-18T09:05:50Z
2022-05-18T07:07:12Z,42.805,6.029,13.3011,4.60066,2470.6,2022-5-18T09:08:53Z
2022-05-18T07:10:15Z,42.805,6.029,13.3014,4.60074,2470.646,2022-5-18T09:11:56Z
2022-05-18T07:13:18Z,42.805,6.029,13.3014,4.60071,2470.624,2022-5-18T09:15:00Z
2022-05-18T07:16:22Z,42.805,6.029,13.3008,4.60062,2470.624,2022-5-18T09:18:03Z
2022-05-18T07:19:25Z,42.805,6.029,13.3009,4.60062,2470.637,2022-5-18T09:21:06Z
2022-05-18T07:22:28Z,42.805,6.029,13.3015,4.60078,2470.646,2022-5-18T09:24:09Z
2022-05-18T07:25:31Z,42.805,6.029,13.3014,4.60064,2470.646,2022-5-18T09:27:12Z
2022-05-18T07:28:34Z,42.805,6.029,13.3011,4.60064,2470.624,2022-5-18T09:30:15Z
2022-05-18T07:31:37Z,42.805,6.029,13.3023,4.60077,2470.637,2022-5-18T09:33:18Z
2022-05-18T07:34:40Z,42.805,6.029,13.3009,4.60072,2470.637,2022-5-18T09:36:21Z
2022-05-18T07:37:43Z,42.805,6.029,13.3014,4.60070,2470.646,2022-5-18T09:39:24Z
2022-05-18T07:40:46Z,42.805,6.029,13.3004,4.60063,2470.646,2022-5-18T09:42:28Z
2022-05-18T07:43:50Z,42.805,6.029,13.3014,4.60057,2470.646,2022-5-18T09:45:31Z
2022-05-18T07:46:53Z,42.805,6.029,13.3019,4.60072,2470.646,2022-5-18T09:48:34Z
2022-05-18T07:49:56Z,42.805,6.029,13.3021,4.60079,2470.646,2022-5-18T09:51:37Z
2022-05-18T07:52:59Z,42.805,6.029,13.3015,4.60069,2470.661,2022-5-18T09:54:40Z
2022-05-18T07:56:02Z,42.805,6.029,13.3009,4.60073,2470.646,2022-5-18T09:57:43Z
2022-05-18T07:59:05Z,42.805,6.029,13.3021,4.60069,2470.661,2022-5-18T10:00:46Z
2022-05-18T08:02:08Z,42.805,6.029,13.3006,4.60052,2470.624,2022-5-18T10:03:49Z
2022-05-18T08:05:11Z,42.805,6.029,13.3003,4.60052,2470.624,2022-5-18T10:06:53Z
2022-05-18T08:08:15Z,42.805,6.029,13.3008,4.60079,2470.637,2022-5-18T10:09:56Z
2022-05-18T08:11:18Z,42.805,6.029,13.3009,4.60060,2470.646,2022-5-18T10:12:59Z
2022-05-18T08:14:21Z,42.805,6.029,13.3013,4.60065,2470.646,2022-5-18T10:16:02Z
2022-05-18T08:17:24Z,42.805,6.029,13.3004,4.60056,2470.646,2022-5-18T10:19:05Z
2022-05-18T08:20:27Z,42.805,6.029,13.3019,4.60069,2470.684,2022-5-18T10:22:08Z
2022-05-18T08:23:30Z,42.805,6.029,13.3011,4.60065,2470.661,2022-5-18T10:25:11Z
2022-05-18T08:26:33Z,42.805,6.029,13.3005,4.60064,2470.624,2022-5-18T10:28:14Z
2022-05-18T08:29:36Z,42.805,6.029,13.3011,4.60077,2470.661,2022-5-18T10:31:18Z
2022-05-18T08:32:40Z,42.805,6.029,13.3026,4.60067,2470.646,2022-5-18T10:34:21Z
2022-05-18T08:35:43Z,42.805,6.029,13.3016,4.60064,2470.624,2022-5-18T10:37:24Z
2022-05-18T08:38:46Z,42.805,6.029,13.3010,4.60067,2470.637,2022-5-18T10:40:27Z
2022-05-18T08:41:49Z,42.805,6.029,13.3018,4.60067,2470.637,2022-5-18T10:43:30Z
2022-05-18T08:44:52Z,42.805,6.029,13.3014,4.60068,2470.637,2022-5-18T10:46:33Z
2022-05-18T08:47:55Z,42.805,6.029,13.3013,4.60064,2470.646,2022-5-18T10:49:36Z
2022-05-18T08:50:58Z,42.805,6.029,13.3010,4.60060,2470.646,2022-5-18T10:52:39Z
2022-05-18T08:54:01Z,42.805,6.029,13.3006,4.60051,2470.624,2022-5-18T10:55:43Z
2022-05-18T08:57:05Z,42.805,6.029,13.3008,4.60069,2470.614,2022-5-18T10:58:46Z
2022-05-18T09:00:08Z,42.805,6.029,13.3011,4.60062,2470.591,2022-5-18T11:01:49Z
2022-05-18T09:03:11Z,42.805,6.029,13.3011,4.60054,2470.661,2022-5-18T11:04:52Z
2022-05-18T09:06:14Z,42.805,6.029,13.3017,4.60072,2470.661,2022-5-18T11:07:55Z
2022-05-18T09:09:17Z,42.805,6.029,13.3014,4.60077,2470.624,2022-5-18T11:10:58Z
2022-05-18T09:12:20Z,42.805,6.029,13.3013,4.60056,2470.637,2022-5-18T11:14:01Z
2022-05-18T09:15:23Z,42.805,6.029,13.3014,4.60055,2470.624,2022-5-18T11:17:04Z
2022-05-18T09:18:26Z,42.805,6.029,13.3020,4.60075,2470.646,2022-5-18T11:20:08Z
2022-05-18T09:21:30Z,42.805,6.029,13.3013,4.60067,2470.624,2022-5-18T11:23:11Z
2022-05-18T09:24:33Z,42.805,6.029,13.3006,4.60055,2470.661,2022-5-18T11:26:14Z
2022-05-18T09:27:36Z,42.805,6.029,13.3011,4.60070,2470.6,2022-5-18T11:29:17Z
2022-05-18T09:30:39Z,42.805,6.029,13.3015,4.60071,2470.614,2022-5-18T11:32:20Z
2022-05-18T09:33:42Z,42.805,6.029,13.3012,4.60056,2470.614,2022-5-18T11:35:23Z
2022-05-18T09:36:45Z,42.805,6.029,13.3012,4.60059,2470.577,2022-5-18T11:38:26Z
2022-05-18T09:39:48Z,42.805,6.029,13.3014,4.60062,2470.624,2022-5-18T11:41:30Z
2022-05-18T09:42:51Z,42.805,6.029,13.3017,4.60058,2470.591,2022-5-18T11:44:33Z
2022-05-18T09:45:55Z,42.805,6.029,13.3008,4.60064,2470.637,2022-5-18T11:47:36Z
2022-05-18T09:48:58Z,42.805,6.029,13.3014,4.60058,2470.637,2022-5-18T11:50:39Z
2022-05-18T09:52:01Z,42.805,6.029,13.3013,4.60080,2470.614,2022-5-18T11:53:42Z
2022-05-18T09:55:04Z,42.805,6.029,13.3011,4.60074,2470.624,2022-5-18T11:56:45Z
2022-05-18T09:58:07Z,42.805,6.029,13.3005,4.60064,2470.6,2022-5-18T11:59:48Z
2022-05-18T10:01:10Z,42.805,6.029,13.3018,4.60058,2470.646,2022-5-18T12:02:51Z
2022-05-18T10:04:13Z,42.805,6.029,13.3006,4.60051,2470.577,2022-5-18T12:05:55Z
2022-05-18T10:07:16Z,42.805,6.029,13.3014,4.60072,2470.6,2022-5-18T12:08:58Z
2022-05-18T10:10:20Z,42.805,6.029,13.3018,4.60073,2470.6,2022-5-18T12:12:01Z
2022-05-18T10:13:23Z,42.805,6.029,13.3011,4.60059,2470.637,2022-5-18T12:15:04Z
2022-05-18T10:16:26Z,42.805,6.029,13.3021,4.60066,2470.591,2022-5-18T12:18:07Z
2022-05-18T10:19:29Z,42.805,6.029,13.3014,4.60074,2470.577,2022-5-18T12:21:10Z
2022-05-18T10:22:32Z,42.805,6.029,13.3009,4.60064,2470.553,2022-5-18T12:24:13Z
2022-05-18T10:25:35Z,42.805,6.029,13.3007,4.60060,2470.577,2022-5-18T12:27:16Z
2022-05-18T10:28:38Z,42.805,6.029,13.3007,4.60056,2470.577,2022-5-18T12:30:20Z
2022-05-18T10:31:41Z,42.805,6.029,13.3018,4.60062,2470.553,2022-5-18T12:33:23Z
2022-05-18T10:34:45Z,42.805,6.029,13.3021,4.60072,2470.591,2022-5-18T12:36:26Z
2022-05-18T10:37:48Z,42.805,6.029,13.3013,4.60083,2470.6,2022-5-18T12:39:29Z
2022-05-18T10:40:51Z,42.805,6.029,13.3007,4.60069,2470.577,2022-5-18T12:42:32Z
2022-05-18T10:43:54Z,42.805,6.029,13.3019,4.60082,2470.614,2022-5-18T12:45:35Z
2022-05-18T10:46:57Z,42.805,6.029,13.3009,4.60065,2470.577,2022-5-18T12:48:38Z
2022-05-18T10:50:00Z,42.805,6.029,13.3013,4.60084,2470.577,2022-5-18T12:51:41Z
2022-05-18T10:53:03Z,42.805,6.029,13.3015,4.60080,2470.553,2022-5-18T12:54:45Z
2022-05-18T10:56:07Z,42.805,6.029,13.3017,4.60079,2470.52,2022-5-18T12:57:48Z
2022-05-18T10:59:10Z,42.805,6.029,13.3024,4.60066,2470.553,2022-5-18T13:00:51Z
2022-05-18T11:02:13Z,42.805,6.029,13.3024,4.60082,2470.567,2022-5-18T13:03:54Z
2022-05-18T11:05:16Z,42.805,6.029,13.3011,4.60060,2470.53,2022-5-18T13:06:57Z
2022-05-18T11:08:19Z,42.805,6.029,13.3024,4.60079,2470.567,2022-5-18T13:10:00Z
2022-05-18T11:11:22Z,42.805,6.029,13.3014,4.60085,2470.52,2022-5-18T13:13:03Z
2022-05-18T11:14:25Z,42.805,6.029,13.3011,4.60052,2470.53,2022-5-18T13:16:06Z
2022-05-18T11:17:28Z,42.805,6.029,13.3012,4.60055,2470.53,2022-5-18T13:19:10Z
2022-05-18T11:20:32Z,42.805,6.029,13.3009,4.60072,2470.53,2022-5-18T13:22:13Z
2022-05-18T11:23:35Z,42.805,6.029,13.3018,4.60079,2470.553,2022-5-18T13:25:16Z
2022-05-18T11:26:38Z,42.805,6.029,13.3015,4.60089,2470.553,2022-5-18T13:28:19Z
2022-05-18T11:29:41Z,42.805,6.029,13.3018,4.60087,2470.53,2022-5-18T13:31:22Z
2022-05-18T11:32:44Z,42.805,6.029,13.3024,4.60067,2470.53,2022-5-18T13:34:25Z
2022-05-18T11:35:47Z,42.805,6.029,13.3015,4.60076,2470.544,2022-5-18T13:37:28Z
2022-05-18T11:38:50Z,42.805,6.029,13.3004,4.60053,2470.567,2022-5-18T13:40:31Z
2022-05-18T11:41:53Z,42.805,6.029,13.3016,4.60075,2470.544,2022-5-18T13:43:35Z
2022-05-18T11:44:57Z,42.805,6.029,13.3008,4.60075,2470.52,2022-5-18T13:46:38Z
2022-05-18T11:48:00Z,42.805,6.029,13.3007,4.60073,2470.507,2022-5-18T13:49:41Z
2022-05-18T11:51:03Z,42.805,6.029,13.3015,4.60084,2470.567,2022-5-18T13:52:44Z
2022-05-18T11:54:06Z,42.805,6.029,13.3014,4.60080,2470.53,2022-5-18T13:55:47Z
2022-05-18T11:57:09Z,42.805,6.029,13.3012,4.60061,2470.53,2022-5-18T13:58:50Z
2022-05-18T12:00:12Z,42.805,6.029,13.3025,4.60069,2470.52,2022-5-18T14:01:53Z
2022-05-18T12:03:15Z,42.805,6.029,13.3019,4.60082,2470.52,2022-5-18T14:04:56Z
2022-05-18T12:06:18Z,42.805,6.029,13.3012,4.60064,2470.52,2022-5-18T14:08:00Z
2022-05-18T12:09:21Z,42.805,6.029,13.3024,4.60074,2470.507,2022-5-18T14:11:03Z
2022-05-18T12:12:25Z,42.805,6.029,13.3013,4.60063,2470.544,2022-5-18T14:14:06Z
2022-05-18T12:15:28Z,42.805,6.029,13.3011,4.60077,2470.507,2022-5-18T14:17:09Z
2022-05-18T12:18:31Z,42.805,6.029,13.3020,4.60079,2470.46,2022-5-18T14:20:12Z
2022-05-18T12:21:34Z,42.805,6.029,13.3018,4.60085,2470.53,2022-5-18T14:23:15Z
2022-05-18T12:24:37Z,42.805,6.029,13.3020,4.60062,2470.507,2022-5-18T14:26:18Z
2022-05-18T12:27:40Z,42.805,6.029,13.3006,4.60061,2470.483,2022-5-18T14:29:21Z
2022-05-18T12:30:43Z,42.805,6.029,13.3018,4.60073,2470.52,2022-5-18T14:32:25Z
2022-05-18T12:33:47Z,42.805,6.029,13.3024,4.60064,2470.46,2022-5-18T14:35:28Z
2022-05-18T12:36:50Z,42.805,6.029,13.3021,4.60074,2470.483,2022-5-18T14:38:31Z
2022-05-18T12:39:53Z,42.805,6.029,13.3018,4.60072,2470.483,2022-5-18T14:41:34Z
2022-05-18T12:42:56Z,42.805,6.029,13.3011,4.60061,2470.474,2022-5-18T14:44:37Z
2022-05-18T12:45:59Z,42.805,6.029,13.3010,4.60049,2470.497,2022-5-18T14:47:40Z
2022-05-18T12:49:02Z,42.805,6.029,13.3018,4.60068,2470.483,2022-5-18T14:50:43Z
2022-05-18T12:52:05Z,42.805,6.029,13.3001,4.60046,2470.437,2022-5-18T14:53:47Z
2022-05-18T12:55:08Z,42.805,6.029,13.3002,4.60046,2470.46,2022-5-18T14:56:50Z
2022-05-18T12:58:12Z,42.805,6.029,13.3001,4.60049,2470.446,2022-5-18T14:59:53Z
2022-05-18T13:01:15Z,42.805,6.029,13.3021,4.60080,2470.507,2022-5-18T15:02:56Z
2022-05-18T13:04:18Z,42.805,6.029,13.3009,4.60069,2470.52,2022-5-18T15:05:59Z
2022-05-18T13:07:21Z,42.805,6.029,13.3020,4.60064,2470.483,2022-5-18T15:09:02Z
2022-05-18T13:10:24Z,42.805,6.029,13.3008,4.60046,2470.45,2022-5-18T15:12:05Z
2022-05-18T13:13:27Z,42.805,6.029,13.3019,4.60058,2470.46,2022-5-18T15:15:08Z
2022-05-18T13:16:30Z,42.805,6.029,13.3015,4.60074,2470.46,2022-5-18T15:18:12Z
2022-05-18T13:19:33Z,42.805,6.029,13.3014,4.60066,2470.46,2022-5-18T15:21:15Z
2022-05-18T13:22:37Z,42.805,6.029,13.3017,4.60079,2470.497,2022-5-18T15:24:18Z
2022-05-18T13:25:40Z,42.805,6.029,13.3011,4.60078,2470.46,2022-5-18T15:27:21Z
2022-05-18T13:28:43Z,42.805,6.029,13.3011,4.60064,2470.483,2022-5-18T15:30:24Z
2022-05-18T13:31:46Z,42.805,6.029,13.3013,4.60059,2470.446,2022-5-18T15:33:27Z
2022-05-18T13:34:49Z,42.805,6.029,13.3018,4.60070,2470.46,2022-5-18T15:36:30Z
2022-05-18T13:37:52Z,42.805,6.029,13.3016,4.60070,2470.45,2022-5-18T15:39:33Z
2022-05-18T13:40:55Z,42.805,6.029,13.3014,4.60059,2470.46,2022-5-18T15:42:37Z
2022-05-18T13:43:58Z,42.805,6.029,13.3019,4.60067,2470.45,2022-5-18T15:45:40Z
2022-05-18T13:47:02Z,42.805,6.029,13.3007,4.60060,2470.45,2022-5-18T15:48:43Z
2022-05-18T13:50:05Z,42.805,6.029,13.3010,4.60049,2470.437,2022-5-18T15:51:46Z
2022-05-18T13:53:08Z,42.805,6.029,13.3010,4.60056,2470.46,2022-5-18T15:54:49Z
2022-05-18T13:56:11Z,42.805,6.029,13.3010,4.60056,2470.437,2022-5-18T15:57:52Z
2022-05-18T13:59:14Z,42.805,6.029,13.3020,4.60057,2470.45,2022-5-18T16:00:55Z
2022-05-18T14:02:17Z,42.805,6.029,13.3014,4.60062,2470.413,2022-5-18T16:03:58Z
2022-05-18T14:05:20Z,42.805,6.029,13.3008,4.60064,2470.46,2022-5-18T16:07:02Z
2022-05-18T14:08:23Z,42.805,6.029,13.3008,4.60046,2470.437,2022-5-18T16:10:05Z
2022-05-18T14:11:27Z,42.805,6.029,13.3006,4.60052,2470.46,2022-5-18T16:13:08Z
2022-05-18T14:14:30Z,42.805,6.029,13.3006,4.60057,2470.45,2022-5-18T16:16:11Z
2022-05-18T14:17:33Z,42.805,6.029,13.3011,4.60065,2470.437,2022-5-18T16:19:14Z
2022-05-18T14:20:36Z,42.805,6.029,13.3011,4.60056,2470.46,2022-5-18T16:22:17Z
2022-05-18T14:23:39Z,42.805,6.029,13.3009,4.60054,2470.45,2022-5-18T16:25:20Z
2022-05-18T14:26:42Z,42.805,6.029,13.3005,4.60049,2470.45,2022-5-18T16:28:23Z
2022-05-18T14:29:45Z,42.805,6.029,13.3000,4.60045,2470.427,2022-5-18T16:31:26Z
2022-05-18T14:32:48Z,42.805,6.029,13.3008,4.60054,2470.437,2022-5-18T16:34:30Z
2022-05-18T14:35:52Z,42.805,6.029,13.3010,4.60056,2470.413,2022-5-18T16:37:33Z
2022-05-18T14:38:55Z,42.805,6.029,13.3008,4.60046,2470.474,2022-5-18T16:40:36Z
2022-05-18T14:41:58Z,42.805,6.029,13.3009,4.60058,2470.45,2022-5-18T16:43:39Z
2022-05-18T14:45:01Z,42.805,6.029,13.3008,4.60054,2470.427,2022-5-18T16:46:42Z
2022-05-18T14:48:04Z,42.805,6.029,13.3006,4.60057,2470.413,2022-5-18T16:49:45Z
2022-05-18T14:51:07Z,42.805,6.029,13.3006,4.60045,2470.437,2022-5-18T16:52:48Z
2022-05-18T14:54:10Z,42.805,6.029,13.3014,4.60055,2470.427,2022-5-18T16:55:51Z
2022-05-18T14:57:13Z,42.805,6.029,13.3012,4.60042,2470.413,2022-5-18T16:58:55Z
2022-05-18T15:00:17Z,42.805,6.029,13.3007,4.60059,2470.413,2022-5-18T17:01:58Z
2022-05-18T15:03:20Z,42.805,6.029,13.3006,4.60044,2470.39,2022-5-18T17:05:01Z
2022-05-18T15:06:23Z,42.805,6.029,13.3009,4.60065,2470.437,2022-5-18T17:08:04Z
2022-05-18T15:09:26Z,42.805,6.029,13.3006,4.60046,2470.474,2022-5-18T17:11:07Z
2022-05-18T15:12:29Z,42.805,6.029,13.3008,4.60050,2470.437,2022-5-18T17:14:10Z
2022-05-18T15:15:32Z,42.805,6.029,13.3010,4.60064,2470.46,2022-5-18T17:17:13Z